Skip Page Navigation
NASA JPL Caltech
NASA Logo - Jet Propulsion Laboratory + View the NASA Portal
+ Center for Near-Earth Object Studies
JPL Home Earth Solar System Stars & Galaxies Technology
JPL Solar System Dynamics
BODIES ORBITS EPHEMERIDES TOOLS PHYSICAL DATA DISCOVERY FAQ SITE MAP
IMPORTANT: The SSD Announcement email list is now available. Major changes are coming in the near future, including possible hostname and/or URL changes. To be notified of such changes, subscribe to this email list.

Please visit this page for more details.


JPL Small-Body Database Browser
Search: [ help ]  
487035 (2014 OV36)
Classification: Main-belt Asteroid          SPK-ID: 2487035
Ephemeris | Orbit Diagram | Orbital Elements | Mission Design | Physical Parameters | Discovery Circumstances ]

[ show orbit diagram ]
Orbital Elements at Epoch 2458600.5 (2019-Apr-27.0) TDB
Reference: JPL 13 (heliocentric ecliptic J2000)
 Element Value Uncertainty (1-sigma)   Units 
e .1191584361081408 9.5677e-08  
a 2.720973028100133 5.2494e-08 au
q 2.396746137379289 2.9267e-07 au
i 6.510897950517201 9.5884e-06 deg
node 112.8717571017005 5.0205e-05 deg
peri 154.3417844765028 6.4821e-05 deg
M 52.83416634003381 3.5949e-05 deg
tp 2458359.899159306499
(2018-Aug-29.39915931)
0.00016309 TDB
period 1639.399438844347
4.49
4.7441e-05
1.299e-07
d
yr
n .2195926090189301 6.3546e-09 deg/d
Q 3.045199918820977 5.8749e-08 au
  Orbit Determination Parameters
   # obs. used (total)      64  
   data-arc span      4748 days (13.00 yr)  
   first obs. used      2005-07-12  
   last obs. used      2018-07-12  
   planetary ephem.      DE431  
   SB-pert. ephem.      SB431-N16  
   condition code      0  
   norm. resid. RMS      .61036  
   source      ORB  
   producer      Otto Matic  
   solution date      2019-Jul-14 16:02:41  

Additional Information
 Earth MOID = 1.38217 au 
 Jupiter MOID = 2.04703 au 
 T_jup = 3.339 
[ show covariance matrix ]

Ephemeris | Orbit Diagram | Orbital Elements | Mission Design | Physical Parameters | Discovery Circumstances ]

Physical Parameter Table
Parameter Symbol Value Units Sigma Reference Notes
absolute magnitude H 17.7   n/a MPO456347  

487035 (2014 OV36)          Discovered 2009-May-15 by Spacewatch at Kitt Peak
Reference: Last Updated: 2017-03-14
Ephemeris | Orbit Diagram | Orbital Elements | Mission Design | Physical Parameters | Discovery Circumstances ]
ABOUT SSD CREDITS/AWARDS PRIVACY/COPYRIGHT GLOSSARY LINKS
FirstGov
(server date/time)  
NASA Home Page
Site Manager:   Ryan S. Park
Webmaster  Alan B. Chamberlin